TimeEDT,TemperatureF,Dew PointF,Humidity,Sea Level PressureIn,VisibilityMPH,Wind Direction,Wind SpeedMPH,Gust SpeedMPH,PrecipitationIn,Events,Conditions,WindDirDegrees,DateUTC
12:53 AM,70.0,64.9,84,29.91,10.0,North,10.4,-,0.00,,Overcast,10,2013-09-12 04:53:00
1:06 AM,69.8,62.6,78,29.92,10.0,North,4.6,-,N/A,,Overcast,10,2013-09-12 05:06:00
1:53 AM,69.1,61.0,75,29.91,10.0,NNW,6.9,-,N/A,,Overcast,340,2013-09-12 05:53:00
2:53 AM,66.9,62.1,84,29.91,10.0,WNW,5.8,-,N/A,,Mostly Cloudy,290,2013-09-12 06:53:00
3:01 AM,66.2,62.6,88,29.92,10.0,WNW,5.8,-,N/A,,Overcast,300,2013-09-12 07:01:00
3:16 AM,64.4,60.8,88,29.92,10.0,West,4.6,-,N/A,,Scattered Clouds,270,2013-09-12 07:16:00
3:53 AM,63.0,60.1,90,29.91,10.0,West,3.5,-,N/A,,Partly Cloudy,270,2013-09-12 07:53:00
4:53 AM,62.1,59.0,90,29.91,10.0,WNW,5.8,-,N/A,,Clear,290,2013-09-12 08:53:00
5:53 AM,61.0,57.9,90,29.91,10.0,West,5.8,-,N/A,,Clear,280,2013-09-12 09:53:00
6:53 AM,59.0,57.0,93,29.93,10.0,Calm,Calm,-,N/A,,Partly Cloudy,0,2013-09-12 10:53:00
7:53 AM,59.0,57.0,93,29.94,10.0,SSW,4.6,-,N/A,,Partly Cloudy,200,2013-09-12 11:53:00
8:53 AM,62.1,59.0,90,29.95,10.0,Calm,Calm,-,N/A,,Mostly Cloudy,0,2013-09-12 12:53:00
9:53 AM,64.9,55.9,73,29.96,10.0,NNW,10.4,-,N/A,,Mostly Cloudy,340,2013-09-12 13:53:00
10:53 AM,66.9,55.9,68,29.97,10.0,NNE,11.5,-,N/A,,Mostly Cloudy,30,2013-09-12 14:53:00
11:08 AM,66.2,55.4,68,29.98,10.0,NNE,9.2,-,N/A,,Scattered Clouds,30,2013-09-12 15:08:00
11:53 AM,66.9,53.1,61,29.98,10.0,North,10.4,-,N/A,,Mostly Cloudy,10,2013-09-12 15:53:00
12:53 PM,66.0,50.0,56,29.99,10.0,North,12.7,18.4,N/A,,Mostly Cloudy,10,2013-09-12 16:53:00
1:53 PM,64.0,48.0,56,30.01,10.0,North,13.8,20.7,N/A,,Overcast,360,2013-09-12 17:53:00
2:53 PM,64.0,48.0,56,30.01,10.0,North,10.4,20.7,N/A,,Overcast,350,2013-09-12 18:53:00
3:53 PM,64.9,48.9,56,30.01,10.0,NNW,12.7,21.9,N/A,,Mostly Cloudy,340,2013-09-12 19:53:00
4:53 PM,62.1,48.0,60,30.00,10.0,North,9.2,21.9,N/A,,Mostly Cloudy,360,2013-09-12 20:53:00
5:53 PM,61.0,46.9,60,30.01,10.0,North,12.7,-,N/A,,Mostly Cloudy,360,2013-09-12 21:53:00
6:53 PM,60.1,46.0,60,30.02,10.0,North,12.7,26.5,N/A,,Overcast,360,2013-09-12 22:53:00
7:53 PM,59.0,44.1,58,30.04,10.0,North,17.3,27.6,N/A,,Overcast,350,2013-09-12 23:53:00
8:53 PM,55.9,45.0,67,30.06,10.0,North,13.8,23.0,N/A,,Overcast,360,2013-09-13 00:53:00
9:53 PM,55.0,45.0,69,30.07,10.0,North,17.3,23.0,N/A,,Overcast,360,2013-09-13 01:53:00
10:53 PM,55.0,43.0,64,30.06,10.0,North,17.3,24.2,0.00,,Overcast,350,2013-09-13 02:53:00
11:53 PM,55.0,44.1,67,30.07,10.0,North,12.7,20.7,N/A,,Overcast,350,2013-09-13 03:53:00